Location: Killam
(52.7910°N, 111.8608°W)
Time: 06:13:00
(UTC+00:00)

A-11 Canister half - Pass Details

Date: 24 February 2026
Orbit: 1524 x 1683 km, 47.3° (Epoch: 13 March)

Event Time Altitude Azimuth Distance (km) Brightness Sun altitude
Rises 22:45:56 0° 232° (SW) 4,750 13.4 16.6°
Reaches altitude 10° 22:49:09 10° 227° (SW) 3,748 13.9 16.2°
Maximum altitude 22:58:03 49° 156° (SSE) 1,906 9.9 15.2°
Drops below altitude 10° 23:06:50 10° 86° (E) 3,694 10.6 14.1°
Sets 23:09:58 0° 81° (E) 4,677 11.0 13.7°
